Volver al catálogo

TITAN 3C TRANSTAGE DEB

LostMEO
NORAD 39299·DEBRIS·🇺🇸 United States

Lanzado Sep 26, 1968 desde Cape Canaveral Space Force Station

Loading…

Próximos Pases (próximas 24 horas)

TLE

ObsoletoSource: Space-Track

Época: Mar 17, 2026, 20:41 UTC

1 39299U 68081AK  26076.86243257 -.00000075  00000-0  00000-0 0  9996
2 39299   1.4395  20.4788 0164323  23.2172 150.1221  1.00443730 66254

Sigue TITAN 3C TRANSTAGE DEB en tiempo real con AllMySat

Download on the App Store